Regional Weather Roundup
Issued by NWS

Home | Current Version | Previous Version | Graphics & Text | Print | Product List | Glossary On
Versions: 1 2 3 4 5 6 7 8 9 10 11 12 13 14 15 16 17 18 19 20 21 22 23 24 25 26 27 28 29 30 31 32 33 34 35 36 37 38 39 40 41 42 43 44 45 46 47 48 49 50
000
ASUS43 KBIS 261102
RWRND

NORTH DAKOTA REGIONAL WEATHER ROUNDUP
NATIONAL WEATHER SERVICE BISMARCK ND
600 AM CDT MON JUN 26 2017

NOTE: "FAIR" INDICATES FEW OR NO CLOUDS BELOW 12,000 FEET WITH NO
SIGNIFICANT WEATHER AND/OR OBSTRUCTIONS TO VISIBILITY.


NDZ001>003-009>011-017-261200-
NORTHWEST NORTH DAKOTA

CITY           SKY/WX    TMP DP  RH WIND       PRES   REMARKS
WILLISTON      CLEAR     45  41  86 NW3       30.24S
MINOT          CLEAR     43  39  86 SW3       30.24S
MINOT AFB      CLEAR     39  35  86 CALM      30.24R
$$

NDZ018>021-031>035-040>046-261200-
SOUTHWEST NORTH DAKOTA

CITY           SKY/WX    TMP DP  RH WIND       PRES   REMARKS
BISMARCK       CLEAR     43  41  93 E3        30.26S
DICKINSON      CLEAR     43  40  89 SE8       30.24R
GARRISON         N/A     38  36  92 NE6       30.25R
HETTINGER ARPT CLEAR     45  40  82 SE6       30.27S
$$

NDZ004>008-012>016-024-026-027-054-261200-
NORTHEAST NORTH DAKOTA

CITY           SKY/WX    TMP DP  RH WIND       PRES   REMARKS
GRAND FORKS    CLEAR     43  41  93 W7        30.21R
GRND FRKS AFB  PTCLDY    44  41  88 W8        30.21R
DEVILS LAKE    CLEAR     43  40  89 CALM      30.24S
$$

NDZ022-023-025-028>030-036>039-047>053-261200-
SOUTHEAST NORTH DAKOTA

CITY           SKY/WX    TMP DP  RH WIND       PRES   REMARKS
FARGO          CLEAR     42  39  89 W3        30.22R
JAMESTOWN      CLEAR     43  40  89 CALM      30.24R
$$





USA.gov is the U.S. government's official web portal to all federal, state and local government web resources and services.